"Pseudo-MPEC" for P10OArQ

Created 2019 Jun 15 19:07:55 UT using Find_Orb

Click here for an explanation of pseudo-MPECs

 
 Astrometry: 
     P10OArQ  C2019 06 02O'dR2MJtOnN-_RrWd?Uv/g_x]D^#Oj,1._C\cw09E^F*jr.7K+G8F51
     P10OArQ  C2019 06 02jyu4]Rd'_O5xrqaIAstrometry[n?Scsordt#e2Gb\Un\SOrQ!CmF51
     P10OArQ  C2019 06 02J%mrxn%bAN4_redacted;H7%5^CQtyEN[yW-*2+w\0k/b94J4c^sF51
     P10OArQ  C2019 06 02eORhvQOwkdPHrZ[#2qgWZOpIT*flWQv0Rd`]5ZKydNclickKEcN1F51
     P10OArQ |C2019 06 034ohoy^rSB^ySiu=u_#Y@8mk8X?cW(lh=;Vf:n^GjvGCeBaa\@VWg807
     P10OArQ |C2019 06 03GIEAfV#XxtN.`hxjFt7D`3_GI#AYZ.'].J%\=T0K:S(9C(34LM!1807
     P10OArQ |C2019 06 03N%5o^IX?a@u1^!GU/2[Ie=bE*PrW+],dLUIP3B7SlsIG([\+yHER807
     P10OArQ |C2019 06 06FqcRTIp'%sWlH4Jl-MmicPtcOvZN(El2To)[heretlgrnA,3mEZ\807
     P10OArQ |C2019 06 06.d1r:-,B6for2h\yB+(W^#G1qB=iUe4iGCTexplanation2oH@!j807
     P10OArQ |C2019 06 0603XF2TQn11-42_T5NccS,-4!U.yiXV2p$x[12n)rsFfMcsOoZdJi807
     P10OArQ  C2019 06 08rLhkpF/L3YP1ow=yI?Lp_32O)lm-5@4$1*$t0k.:WVt0Im\s-\asF51
     P10OArQ  C2019 06 08fjfYQUyeYdo89%)!t`2*:`:=-Q7:gx4SBTgscf9w+.5xhSXeFrKaF51
     P10OArQ  C2019 06 086Xl'MY%;3!IN2@g/%PxWrq04OOZHTu^ggen!D/4y2h'xbIbhS`E%F51
     P10OArQ  C2019 06 10W09-_M/n#G[DfOE083c$!jmd,FK+K\;CUFR#IS8G?gm)YZl]679TF51
     P10OArQ  C2019 06 10*$`+)E0?;OcJOoMRIeyB,FL?'r=/;KnseSV0cvKl9OAbseAs.'sZF51
     P10OArQ  C2019 06 10FRqv0ka=Hrxws7':y)he%as,Z-S5_U`UM7?sx\uJcs6d)*=fr(k3F51
     P10OArQ  C2019 06 10URH_]Vnw1v4Qog3D7P=9@[vKxcw[T16`Y-Epc:mt6\K_#9):C.d[F51

Station data:
(807) Cerro Tololo Observatory, La Serena  (S30.169136 W70.805900)  Chile.
(F51) Pan-STARRS 1, Haleakala  (N20.707235 W156.255910)  US/Hawaii.
   Observers N. Primak, A. Schultz, S. Watters, J. Thiel, T. Goggia. Measurer
   PS1 Science Consortium. 1.8-m Ritchey-Chrétien + CCD.

Orbital elements:  P10OArQ
   Perihelion 2019 Jun 18.495851 +/- 0.103 TT = 11:54:01 (JD 2458652.995851)
Epoch 2019 Jun 10.0 TT = JDT 2458644.5   Earth MOID: 0.3798   Ma: 0.0800
M 357.46647257 +/- 0.028            (J2000 ecliptic)          AutoNEOCP
n   0.29820761 +/- 0.00107          Peri.  359.25474 +/- 0.07
a   2.21882763 +/- 0.00531          Node   259.66339 +/- 0.014
e   0.3712473 +/- 0.0011            Incl.    6.77430 +/- 0.016
P   3.31                   H 22.7   G  0.15   U  8.2  
q 1.39509386 +/- 0.000949    Q 3.04256141 +/- 0.00978
From 17 observations 2019 June 2-10; mean residual 0".19
Residuals in arcseconds: 
190602 F51  .18-  .03+    190603 807  .02+  .03-    190608 F51  .14+  .11+    
190602 F51  .03+  .11+    190606 807  .40-  .10-    190610 F51  .08-  .05-    
190602 F51  .08-  .01+    190606 807  .26+  .19-    190610 F51  .12+  .02-    
190602 F51  .13-  .02+    190606 807  .53-  .25+    190610 F51  .13+  .14-    
190603 807  .26+  .10-    190608 F51  .21+  .15+    190610 F51  .29-  .09+    
190603 807  .34+  .06-    190608 F51  .17+  .05-    

Ephemerides (geocentric):
Date (UTC) HH   RA              Dec         delta   r     elong  mag " sig PA
---- -- -- --  -------------   -----------  ------ ------ -----  --- ---- ---
2019 06 15 19  15 46 30.505   -21 00 11.95  .40717 1.3953 154.9 22.4 1.44 102
2019 06 15 20  15 46 32.198   -20 59 33.11  .40724 1.3953 154.9 22.4 1.46 102
2019 06 15 21  15 46 33.895   -20 58 54.30  .40731 1.3953 154.9 22.4 1.47 102
2019 06 15 22  15 46 35.596   -20 58 15.51  .40738 1.3953 154.8 22.4 1.49 102
2019 06 15 23  15 46 37.301   -20 57 36.74  .40745 1.3953 154.8 22.4 1.50 102
2019 06 16 00  15 46 39.010   -20 56 58.00  .40753 1.3953 154.8 22.4 1.52 102
2019 06 16 01  15 46 40.722   -20 56 19.28  .40760 1.3953 154.7 22.4 1.53 102
2019 06 16 02  15 46 42.438   -20 55 40.59  .40767 1.3953 154.7 22.4 1.55 102
2019 06 16 03  15 46 44.158   -20 55 01.92  .40774 1.3953 154.7 22.4 1.56 102
2019 06 16 04  15 46 45.881   -20 54 23.28  .40781 1.3952 154.6 22.4 1.58 102
2019 06 16 05  15 46 47.609   -20 53 44.66  .40789 1.3952 154.6 22.4 1.59 102
2019 06 16 06  15 46 49.340   -20 53 06.07  .40796 1.3952 154.6 22.4 1.61 102
2019 06 16 07  15 46 51.075   -20 52 27.50  .40803 1.3952 154.5 22.4 1.62 102
2019 06 16 08  15 46 52.813   -20 51 48.96  .40811 1.3952 154.5 22.4 1.64 102
2019 06 16 09  15 46 54.556   -20 51 10.44  .40818 1.3952 154.4 22.4 1.65 102
2019 06 16 10  15 46 56.302   -20 50 31.95  .40825 1.3952 154.4 22.4 1.67 102
2019 06 16 11  15 46 58.052   -20 49 53.48  .40833 1.3952 154.4 22.4 1.68 102
2019 06 16 12  15 46 59.806   -20 49 15.04  .40840 1.3952 154.3 22.4 1.70 102
2019 06 16 13  15 47 01.563   -20 48 36.62  .40847 1.3952 154.3 22.4 1.72 102
2019 06 16 14  15 47 03.325   -20 47 58.23  .40855 1.3952 154.3 22.4 1.73 102
2019 06 16 15  15 47 05.090   -20 47 19.87  .40862 1.3952 154.2 22.4 1.75 102
2019 06 16 16  15 47 06.858   -20 46 41.52  .40870 1.3952 154.2 22.4 1.76 102
2019 06 16 17  15 47 08.631   -20 46 03.21  .40877 1.3952 154.2 22.4 1.78 103
2019 06 16 18  15 47 10.407   -20 45 24.92  .40885 1.3952 154.1 22.4 1.80 103
2019 06 16 19  15 47 12.188   -20 44 46.66  .40892 1.3952 154.1 22.4 1.81 103
2019 06 16 20  15 47 13.971   -20 44 08.42  .40900 1.3952 154.1 22.4 1.83 103
2019 06 16 21  15 47 15.759   -20 43 30.21  .40908 1.3952 154.0 22.4 1.84 103
2019 06 16 22  15 47 17.551   -20 42 52.02  .40915 1.3952 154.0 22.4 1.86 103
2019 06 16 23  15 47 19.346   -20 42 13.86  .40923 1.3952 154.0 22.4 1.88 103
2019 06 17 00  15 47 21.145   -20 41 35.73  .40931 1.3952 153.9 22.4 1.89 103
2019 06 17 01  15 47 22.947   -20 40 57.62  .40938 1.3952 153.9 22.4 1.91 103
2019 06 17 02  15 47 24.754   -20 40 19.54  .40946 1.3952 153.9 22.4 1.93 103
2019 06 17 03  15 47 26.564   -20 39 41.48  .40954 1.3951 153.8 22.4 1.94 103
2019 06 17 04  15 47 28.378   -20 39 03.45  .40961 1.3951 153.8 22.4 1.96 103
2019 06 17 05  15 47 30.196   -20 38 25.45  .40969 1.3951 153.7 22.4 1.98 103
2019 06 17 06  15 47 32.018   -20 37 47.47  .40977 1.3951 153.7 22.4 1.99 103
2019 06 17 07  15 47 33.843   -20 37 09.52  .40985 1.3951 153.7 22.4 2.01 103
2019 06 17 08  15 47 35.672   -20 36 31.60  .40993 1.3951 153.6 22.4 2.03 103
2019 06 17 09  15 47 37.505   -20 35 53.70  .41000 1.3951 153.6 22.5 2.04 103
2019 06 17 10  15 47 39.342   -20 35 15.83  .41008 1.3951 153.6 22.5 2.06 103
2019 06 17 11  15 47 41.182   -20 34 37.99  .41016 1.3951 153.5 22.5 2.08 103
2019 06 17 12  15 47 43.026   -20 34 00.17  .41024 1.3951 153.5 22.5 2.10 103
2019 06 17 13  15 47 44.874   -20 33 22.38  .41032 1.3951 153.5 22.5 2.11 103
2019 06 17 14  15 47 46.726   -20 32 44.62  .41040 1.3951 153.4 22.5 2.13 103
2019 06 17 15  15 47 48.582   -20 32 06.88  .41048 1.3951 153.4 22.5 2.15 103
2019 06 17 16  15 47 50.441   -20 31 29.17  .41056 1.3951 153.4 22.5 2.16 103
2019 06 17 17  15 47 52.304   -20 30 51.49  .41064 1.3951 153.3 22.5 2.18 103
2019 06 17 18  15 47 54.171   -20 30 13.83  .41072 1.3951 153.3 22.5 2.20 103